#timestamp,LO_Frequency,Hit,StdDev 
1668114015.8,286047000.4,N
1668114035.6,286047000.8,N
1668114055.5,286046998.1,N
1668114075.3,286046999.1,N
1668114095.2,286046999.5,N
1668114115.9,286046998.4,N
1668114135.7,286047000.0,N
1668114155.6,286047000.9,N
1668114175.4,286047000.4,N
1668114225.3,286047000.6,E
1668114235.2,286046998.1,N
1668114255.0,286046998.6,P
1668114255.9,286046998.6,P
1668114275.8,286046999.2,Y
1668114295.6,286046998.5,P
1668114315.5,286047000.6,P
1668114335.3,286047000.1,N
1668114355.1,286046998.3,N
1668114375.9,286047001.2,N
1668114395.7,286046998.3,N
1668114415.6,286046999.8,N
1668114435.4,286046999.8,N
1668114455.2,286047002.3,N
1668114475.1,286047002.0,N
1668114476.0,286047002.0,N
1668114495.8,286047001.4,N
1668114515.7,286047001.8,N
1668114535.5,286047002.1,N
1668114555.3,286047002.7,N
1668114575.2,286046999.7,N
1668114595.0,286046999.8,N
1668114595.9,286046999.8,N
1668114615.7,286047001.9,N
1668114635.6,286047004.3,N
1668114655.4,286047004.3,N
1668114675.3,286047003.6,N
1668114695.1,286047004.0,N
1668114696.0,286047004.0,N
1668114715.8,286047006.0,Y
1668114735.7,286047003.9,P
1668114755.5,286047004.0,N
1668114805.4,286047003.3,E
1668114815.3,286047002.7,N
1668114835.1,286046998.2,P
1668114855.9,286047001.0,N
1668114875.7,286046998.2,N
1668114895.5,286046998.7,N
1668114915.4,286047001.2,N
1668114935.2,286046998.6,N
1668114955.1,286046999.6,N
1668114956.0,286046999.6,N
1668114975.8,286046997.2,N
1668114995.6,286046999.6,N
1668115015.5,286046999.4,N
1668115035.3,286046995.7,N
1668115055.1,286046996.0,N
1668115075.9,286046993.9,Y
1668115095.7,286046997.6,P
1668115115.6,286046999.4,N
1668115135.4,286046996.8,P
1668115155.3,286046995.1,Y
1668115175.1,286046998.6,P
1668115195.8,286046999.6,N
1668115215.7,286046999.5,N
1668115235.5,286046998.1,Y
1668115255.4,286047001.7,P
1668115275.2,286046999.9,N
1668115295.1,286047001.1,N
1668115296.0,286047001.1,N
1668115315.8,286046999.7,N
1668115335.6,286047002.0,N
1668115355.5,286047002.6,N
1668115375.3,286047001.8,N
1668115395.2,286047003.3,N
1668115415.9,286047005.3,Y
1668115435.7,286047003.3,P
1668115455.6,286047004.0,P
1668115475.4,286047001.7,N
1668115495.3,286046998.3,N
1668115515.1,286047000.5,N
1668115516.0,286047000.5,N
1668115535.8,286047002.8,N
1668115555.7,286047002.5,N
1668115575.5,286047002.5,N
1668115595.4,286047002.2,N
1668115615.2,286046999.7,N
1668115635.0,286047000.4,N
1668115635.9,286047000.4,N
1668115655.8,286047002.8,N
1668115675.6,286047000.1,N
1668115695.4,286047001.3,N
1668115715.3,286047001.4,N
1668115735.1,286047004.0,N
1668115755.9,286047003.5,N
1668115775.7,286047003.9,N
1668115795.5,286047002.8,N
1668115815.4,286047000.3,N
1668115835.2,286047002.4,N
1668115855.0,286047002.5,N
1668115855.9,286047002.5,N
1668115875.8,286047003.6,N
1668115895.6,286047004.2,N
1668115915.5,286047003.1,N
1668115935.3,286047003.2,N
1668115955.1,286047003.4,N
1668115975.9,286047004.1,N
1668115995.9,286047001.4,N
1668116015.7,286047002.5,N
1668116035.5,286047002.1,N
1668116055.4,286047004.3,Y
1668116075.2,286046999.8,P
1668116095.0,286047002.8,N
1668116096.0,286047002.8,N
1668116115.8,286047001.0,N
1668116135.6,286047002.8,N
1668116155.5,286046999.7,N
1668116175.3,286047000.1,N
1668116195.1,286047000.4,N
1668116215.9,286046998.5,N
1668116235.7,286046998.8,N
1668116255.6,286047000.8,N
1668116275.4,286047000.2,N
1668116295.2,286046999.8,N
1668116315.1,286047002.5,N
1668116316.0,286047002.5,N
1668116335.8,286046999.8,N
1668116355.7,286047000.3,N
1668116375.5,286047000.0,N
1668116395.3,286046999.8,N
1668116415.2,286047000.9,N
1668116435.0,286047000.4,N
1668116435.9,286047000.4,N
1668116455.7,286047000.5,N
1668116475.6,286046999.7,N
1668116495.4,286047001.7,N
1668116515.3,286047001.5,N
1668116535.1,286047002.3,N
1668116536.0,286047002.3,N
1668116555.8,286046999.9,N
1668116575.7,286047000.5,N
1668116595.5,286046998.6,N
1668116615.3,286046998.6,N
1668116635.2,286047000.7,N
1668116655.0,286047000.0,N
1668116655.9,286047000.0,N
1668116675.8,286047000.0,N
1668116695.6,286047001.2,N
1668116715.4,286046999.6,N
1668116735.3,286047001.2,N
1668116755.1,286047000.2,N
1668116775.9,286047004.3,Y
1668116795.7,286047003.6,P
1668116815.5,286047004.1,N
1668116835.4,286047004.3,N
1668116855.2,286047002.1,N
1668116875.0,286047000.5,N
1668116875.9,286047000.5,N
1668116895.8,286047000.7,N
1668116915.6,286046999.7,N
1668116935.5,286047002.3,N
1668116955.3,286046998.3,N
1668116975.1,286047001.2,N
1668116995.9,286046998.1,N
1668117015.7,286046998.6,N
1668117035.5,286046998.7,N
1668117055.4,286047000.6,N
1668117075.2,286047002.6,N
1668117095.1,286046999.7,N
1668117096.0,286046999.7,N
1668117115.8,286047000.9,N
1668117135.6,286047000.3,N
1668117155.5,286047002.6,N
1668117175.3,286047001.3,N
1668117195.1,286047004.4,N
1668117215.9,286046999.7,N
1668117235.7,286047001.5,N
1668117255.6,286047003.9,N
1668117275.4,286047001.7,N
1668117295.2,286047004.4,N
1668117315.1,286047000.2,N
1668117316.0,286047000.2,N
1668117335.8,286047002.2,N
1668117355.6,286046999.8,N
1668117375.5,286047000.3,N
1668117395.3,286047000.2,N
1668117415.4,286046998.9,N
1668117435.3,286046998.7,N
1668117455.1,286047000.8,N
1668117475.8,286047002.4,N
1668117495.7,286047002.5,N
1668117515.5,286047004.1,N
1668117535.4,286047005.6,Y
1668117555.2,286047003.8,P
1668117575.0,286047001.5,N
1668117575.9,286047001.5,N
1668117595.8,286046998.5,N
